{"data":{"norad_id":42845,"intl_designator":"2017-042W","name":"LEMUR-2-ZACHARY","alt_names":[],"object_type":"PAYLOAD","status":"ACTIVE","operator":null,"country":"US","launch_date":"2017-07-14","launch_site_code":"TYMSC","launch_vehicle":null,"mission":null,"orbit_class":"UNKNOWN","rcs_meters":null,"size_class":null,"mass_kg":null,"dimensions":null,"purposes":["earth_obs"],"wikipedia_slug":null,"has_3d_model":false,"image_url":null,"decayed_at":null,"tle_current":{"epoch":"2026-09-20T00:05:51.470016Z","epoch_age_seconds":57194,"freshness":"FRESH","line1":"1 42845U 17042W   26263.00406794  .00056126  00000+0  70837-3 0  9993","line2":"2 42845  97.3529  97.2503 0002953  36.0269 324.1186 15.59401326503932","mean_motion":15.59401326,"eccentricity":0.0002953,"inclination_deg":97.3529,"raan_deg":97.2503,"arg_perigee_deg":36.0269,"mean_anomaly_deg":324.1186,"bstar":0.00070837,"rev_number":50393,"period_min":92.343130404649,"perigee_km":387.39016925834,"apogee_km":391.38706988926,"semimajor_km":6767.5256195738,"source":"CELESTRAK","updated_at":"2026-09-20T09:00:34.868687Z"}}}